EDT,Max TemperatureF,Mean TemperatureF,Min TemperatureF,Max Dew PointF,MeanDew PointF,Min DewpointF,Max Humidity, Mean Humidity, Min Humidity, Max Sea Level PressureIn, Mean Sea Level PressureIn, Min Sea Level PressureIn, Max VisibilityMiles, Mean VisibilityMiles, Min VisibilityMiles, Max Wind SpeedMPH, Mean Wind SpeedMPH, Max Gust SpeedMPH,PrecipitationIn, CloudCover, Events, WindDirDegrees
2013-4-1,64,54,44,48,41,23,87,65,40,29.94,29.79,29.69,10,10,8,15,9,23,0.00,4,,265
2013-4-2,46,42,37,21,17,12,42,37,32,30.14,30.06,29.95,10,10,10,17,9,25,0.00,0,,308
2013-4-3,48,42,37,21,17,12,45,36,29,30.34,30.23,30.14,10,10,10,16,10,24,0.00,0,,302
2013-4-4,44,37,30,32,20,14,81,46,33,30.43,30.32,30.15,10,10,10,16,8,18,0.03,1,,173
2013-4-5,57,47,37,43,35,28,93,69,33,30.14,29.91,29.79,10,9,5,15,6,23,1.05,4,,318
2013-4-6,48,42,37,30,24,18,70,48,34,30.35,30.26,30.00,10,10,10,14,8,23,0.00,0,,48
2013-4-7,55,45,35,45,38,28,81,69,58,30.35,30.21,30.05,10,10,10,25,10,31,0.00,0,,168
2013-4-8,71,60,48,52,47,43,82,65,43,30.11,30.06,30.03,10,10,10,14,10,20,0.00,0,,193
2013-4-9,82,70,57,55,52,48,77,58,37,30.07,30.02,29.97,10,10,10,16,11,22,0.00,1,,216
2013-4-10,86,73,60,57,54,50,72,54,37,29.96,29.90,29.82,,,,15,11,24,0.00,0,,213
2013-4-11,71,60,48,57,50,45,93,76,56,29.92,29.89,29.85,10,7,1,21,10,30,0.00,4,,83
2013-4-12,66,57,48,63,52,45,100,90,82,29.87,29.73,29.62,9,2,0,18,13,25,0.01,7,,109
2013-4-13,60,53,46,45,41,37,93,69,45,29.97,29.89,29.67,10,10,5,16,8,18,0.02,2,,325
2013-4-14,60,50,39,46,40,36,87,64,39,30.18,30.08,29.97,10,10,7,15,6,20,0.00,1,,270
2013-4-15,55,50,46,45,42,37,82,72,58,30.35,30.28,30.16,10,10,10,17,8,26,0.01,4,,84
2013-4-16,64,57,50,54,49,43,88,75,68,30.35,30.28,30.17,10,10,10,22,11,26,0.00,2,,140
2013-4-17,71,61,51,59,49,39,88,72,58,30.28,30.21,30.13,10,10,10,15,8,24,0.00,3,,136
2013-4-18,64,58,53,55,51,41,94,81,62,30.30,30.23,30.10,10,8,1,20,10,24,0.00,6,,127
2013-4-19,69,63,57,61,57,54,94,85,73,30.09,29.89,29.72,10,10,8,26,16,39,0.12,5,,175
2013-4-20,62,55,48,61,37,27,94,57,36,30.30,30.03,29.73,10,10,5,16,11,23,0.59,2,,306
2013-4-21,50,44,37,28,25,19,65,47,37,30.60,30.52,30.30,10,10,8,17,10,18,0.00,0,,43
2013-4-22,51,45,39,39,35,27,76,66,57,30.60,30.51,30.40,10,10,9,24,13,33,0.00,5,,53
2013-4-23,50,47,44,43,40,37,87,77,66,30.40,30.25,30.13,10,10,5,18,13,28,0.00,8,,15
2013-4-24,57,48,39,52,45,36,93,80,72,30.15,30.04,29.89,10,10,6,22,7,29,0.00,2,,184
2013-4-25,60,52,44,52,36,30,88,54,34,30.30,30.18,29.92,10,10,10,17,11,29,0.00,2,,281
2013-4-26,62,50,39,45,36,32,87,55,34,30.43,30.38,30.30,10,10,10,14,4,18,0.00,0,,290
2013-4-27,62,50,39,43,38,36,87,62,42,30.43,30.38,30.32,10,10,10,12,4,,0.00,0,,122
2013-4-28,62,50,39,48,39,32,88,61,34,30.33,30.28,30.21,10,10,2,13,3,,0.00,1,,130
2013-4-29,57,55,53,54,51,46,94,87,67,30.22,30.17,30.13,10,8,3,15,11,22,0.95,7,,124
2013-4-30,59,55,51,52,48,45,94,79,63,30.29,30.21,30.12,10,8,2,18,11,25,0.16,7,,66